Regional Weather Roundup
Issued by NWS

Home | Current Version | Previous Version | Graphics & Text | Print | Product List | Glossary On
Versions: 1 2 3 4 5 6 7 8 9 10 11 12 13 14 15 16 17 18 19 20 21 22 23 24 25 26 27 28 29 30 31 32 33 34 35 36 37 38 39 40 41 42 43 44 45 46 47 48 49 50
000
ASUS45 KABQ 290810
RWRNM
WEATHER ROUNDUP FOR NEW MEXICO
NATIONAL WEATHER SERVICE ALBUQUERQUE NM
200 AM MDT TUE JUL 29 2014

NOTE: "FAIR" MEANS FEW OR NO CLOUDS BELOW 12,000 FEET AGL WITH NO
       SIGNIFICANT WEATHER OR OBSTRUCTIONS TO VISION.

      THIS PRODUCT IS RELEASED AS TWO VERSIONS.  ONE VERSION NEAR
      THE TOP OF THE HOUR CONTAINING PRELIMINARY DATA FROM ALBUQUERQUE
      AND OTHER STATIONS.  A FINAL VERSION WITH ADDITIONAL DATA IS
      ISSUED ABOUT 10 MINUTES AFTER THE HOUR.

NMZ501-503-504-510>518-290900-
NORTHWEST PLATEAU/NORTHCENTRAL MOUNTAINS

CITY           SKY/WX    TMP DP  RH WIND       PRES   REMARKS
FARMINGTON     CLOUDY    64  59  83 N7        30.32F
LOS ALAMOS     LGT RAIN  59  58  99 S7        30.45F
SANTA FE       LGT RAIN  61  58  90 SW5       30.39F
TAOS             N/A     57  54  88 CALM      30.44F
ANGEL FIRE     CLOUDY    56  55  95 NE5       30.52F

$$
NMZ402-403-502-505>509-290900-
WESTCENTRAL MOUNTAINS/SOUTHWEST MOUNTAINS

CITY           SKY/WX    TMP DP  RH WIND       PRES   REMARKS
GALLUP         CLOUDY    62  59  90 CALM      30.38F
SILVER CITY    MOCLDY    68  63  83 NW6       30.30F

$$
NMZ407-409-411-412-290900-
SOUTHERN DESERTS

CITY           SKY/WX    TMP DP  RH WIND       PRES   REMARKS
LORDSBURG      FAIR      70  63  78 CALM      30.19F
DEMING         MOCLDY    75  61  61 NE5       30.20F
LAS CRUCES     MOCLDY    72  65  78 NW5       30.20F
HOLLOMAN AFB   MOCLDY    70  70 100 NE6       30.20F
ALAMOGORDO     CLOUDY    68  68 100 NW8       30.22F
T OR C         CLOUDY    72  59  63 E10       30.25F

$$
NMZ519>523-290900-
CENTRAL VALLEYS/CENTRAL HIGHLANDS

CITY           SKY/WX    TMP DP  RH WIND       PRES   REMARKS
ALBUQUERQUE    LGT RAIN  67  59  75 E16       30.31F
DOUBLE EAGLE   MOCLDY    64  58  82 NE7       30.35F
MORIARTY ARPT  CLOUDY    62  59  91 N3        30.40F THUNDER
CLINES CORNERS RAIN      59  57  93 CALM      30.42F FOG
BELEN          CLOUDY    68  61  78 N7        30.30S
SOCORRO        CLOUDY    75  56  51 SE8       30.25F

$$
NMZ524>526-539-540-290900-
SOUTHCENTRAL MOUNTAINS

CITY           SKY/WX    TMP DP  RH WIND       PRES   REMARKS
RUIDOSO        TSTM      57  57 100 E8        30.45F

$$
NMZ527>531-290900-
NORTHEAST HIGHLANDS/NORTHEAST PLAINS

CITY           SKY/WX    TMP DP  RH WIND       PRES   REMARKS
LAS VEGAS      CLOUDY    58  57  97 SE3       30.40F
RATON          MOCLDY    58  57  97 N5        30.37F
CLAYTON        CLOUDY    64  62  93 S8        30.31F FOG

$$
NMZ532>537-290900-
EASTCENTRAL PLAINS

CITY           SKY/WX    TMP DP  RH WIND       PRES   REMARKS
TUCUMCARI      MOCLDY    72  62  71 W3        30.25F
CANNON AFB     MOCLDY    68  64  88 SE9       30.27F
CLOVIS AIRPORT NOT AVBL

$$
NMZ028-029-538-290900-
SOUTHEAST PLAINS

CITY           SKY/WX    TMP DP  RH WIND       PRES   REMARKS
ROSWELL        LGT RAIN  71  67  87 E8        30.21S
ARTESIA        MOCLDY    79  63  57 E7        30.20F
CARLSBAD       CLEAR     80  62  54 SE7       30.16S
HOBBS          PTCLDY    73  63  68 E14       30.22S


$$


USA.gov is the U.S. government's official web portal to all federal, state and local government web resources and services.